When you browse on this site, cookies collect data to enhance your experience and personalize the content and advertising you see.
Visit our Privacy Policy to learn more. By continuing to use the site, you agree to this use of cookies and data.
  • In United Kingdom
  • List of Countries
  • For 7 days
  • Water Temperature
  • Satellite Maps
  • Weather Map
  • Weather Widgets
  • user-avatar
    Login

    Hourly Weather Sarafovo

    Today, 18 February, Monday

    Time Temperature Precipitation Wind Pressure Humidity
    00:00 +7°C° 0 mm 2 mps 765 mmHg 69%
    01:00 +6°C° 0 mm 2 mps 765 mmHg 69%
    02:00 +6°C° 0 mm 2 mps 765 mmHg 69%
    03:00 +6°C° 0 mm 2 mps 765 mmHg 69%
    04:00 +6°C° 0 mm 2 mps 765 mmHg 69%
    05:00 +5°C° 0 mm 2 mps 764 mmHg 69%
    06:00 +6°C° 0 mm 2 mps 765 mmHg 70%
    07:00 +6°C° 0 mm 2 mps 765 mmHg 70%
    08:00 +6°C° 0 mm 2 mps 765 mmHg 70%
    09:00 +8°C° 0 mm 2 mps 765 mmHg 65%
    10:00 +9°C° 0 mm 2 mps 765 mmHg 59%
    11:00 +12°C° 0 mm 2 mps 766 mmHg 54%
    12:00 +13°C° 0 mm 2 mps 765 mmHg 52%
    13:00 +14°C° 0 mm 2 mps 765 mmHg 49%
    14:00 +15°C° 0 mm 2 mps 765 mmHg 47%
    15:00 +14°C° 0 mm 2 mps 765 mmHg 52%
    16:00 +13°C° 0 mm 2 mps 765 mmHg 56%
    17:00 +12°C° 0 mm 3 mps 765 mmHg 61%
    18:00 +10°C° 0 mm 3 mps 765 mmHg 69%
    19:00 +9°C° 0 mm 2 mps 765 mmHg 76%
    20:00 +8°C° 0 mm 2 mps 765 mmHg 83%
    21:00 +8°C° 0 mm 2 mps 765 mmHg 85%
    22:00 +7°C° 0 mm 2 mps 765 mmHg 87%
    23:00 +8°C° 0 mm 1 mps 765 mmHg 89%

    Tomorrow, 19 February, Tuesday

    Time Temperature Precipitation Wind Pressure Humidity
    00:00 +8°C° 0 mm 1 mps 765 mmHg 89%
    01:00 +7°C° 0 mm 1 mps 765 mmHg 90%
    02:00 +7°C° 0 mm 1 mps 766 mmHg 90%
    03:00 +7°C° 0 mm 1 mps 765 mmHg 91%
    04:00 +7°C° 0 mm 1 mps 765 mmHg 91%
    05:00 +7°C° 0 mm 1 mps 765 mmHg 91%
    06:00 +7°C° 0 mm 1 mps 765 mmHg 91%
    07:00 +7°C° 0 mm 1 mps 765 mmHg 91%
    08:00 +7°C° 0 mm 1 mps 765 mmHg 90%
    09:00 +8°C° 0 mm 2 mps 765 mmHg 83%
    10:00 +9°C° 0 mm 2 mps 765 mmHg 76%
    11:00 +11°C° 0 mm 3 mps 765 mmHg 69%
    12:00 +11°C° 0 mm 3 mps 765 mmHg 66%
    13:00 +12°C° 0 mm 3 mps 765 mmHg 63%
    14:00 +13°C° 0 mm 3 mps 764 mmHg 61%
    15:00 +12°C° 0 mm 3 mps 764 mmHg 64%
    16:00 +11°C° 0 mm 4 mps 764 mmHg 68%
    17:00 +11°C° 0 mm 4 mps 763 mmHg 72%
    18:00 +10°C° 0 mm 4 mps 763 mmHg 77%
    19:00 +9°C° 0 mm 3 mps 763 mmHg 82%
    20:00 +8°C° 0 mm 3 mps 763 mmHg 87%
    21:00 +7°C° 0 mm 3 mps 763 mmHg 88%
    22:00 +7°C° 0 mm 2 mps 763 mmHg 88%
    23:00 +7°C° 0 mm 2 mps 763 mmHg 88%

    Day after tomorrow, 20 February, Wednesday

    Time Temperature Precipitation Wind Pressure Humidity
    00:00 +7°C° 0 mm 2 mps 763 mmHg 88%
    01:00 +8°C° 0 mm 1 mps 763 mmHg 89%
    02:00 +7°C° 0 mm 1 mps 763 mmHg 89%
    03:00 +7°C° 0 mm 1 mps 762 mmHg 89%
    04:00 +7°C° 0 mm 1 mps 762 mmHg 89%
    05:00 +7°C° 0 mm 1 mps 762 mmHg 90%
    06:00 +6°C° 0 mm 2 mps 762 mmHg 89%
    07:00 +6°C° 0 mm 2 mps 762 mmHg 88%
    08:00 +6°C° 0 mm 2 mps 762 mmHg 87%
    09:00 +8°C° 0 mm 2 mps 762 mmHg 78%
    10:00 +10°C° 0 mm 2 mps 762 mmHg 70%
    11:00 +12°C° 0 mm 3 mps 762 mmHg 61%
    12:00 +14°C° 0 mm 2 mps 762 mmHg 57%
    13:00 +15°C° 0 mm 2 mps 762 mmHg 52%
    14:00 +16°C° 0 mm 2 mps 761 mmHg 47%
    15:00 +16°C° 0 mm 2 mps 761 mmHg 49%
    16:00 +16°C° 0 mm 2 mps 761 mmHg 50%
    17:00 +15°C° 0 mm 2 mps 761 mmHg 52%
    18:00 +14°C° 0 mm 2 mps 761 mmHg 54%
    19:00 +13°C° 0 mm 2 mps 762 mmHg 57%
    20:00 +10°C° 0 mm 2 mps 762 mmHg 59%
    21:00 +10°C° 0 mm 2 mps 762 mmHg 61%
    22:00 +9°C° 0 mm 2 mps 763 mmHg 62%
    23:00 +9°C° 0 mm 3 mps 763 mmHg 63%

    21 February, Thursday

    Time Temperature Precipitation Wind Pressure Humidity
    00:00 +8°C° 0 mm 3 mps 763 mmHg 67%
    01:00 +8°C° 0 mm 3 mps 763 mmHg 70%
    02:00 +8°C° 0 mm 3 mps 764 mmHg 74%
    03:00 +7°C° 0 mm 3 mps 764 mmHg 75%
    04:00 +7°C° 0 mm 3 mps 764 mmHg 77%
    05:00 +5°C° 0 mm 3 mps 764 mmHg 78%
    06:00 +7°C° 0 mm 2 mps 764 mmHg 77%
    07:00 +7°C° 0 mm 2 mps 765 mmHg 76%
    08:00 +7°C° 0 mm 2 mps 765 mmHg 76%
    09:00 +8°C° 0 mm 2 mps 766 mmHg 69%
    10:00 +10°C° 0 mm 2 mps 766 mmHg 62%
    11:00 +12°C° 0 mm 2 mps 766 mmHg 56%
    12:00 +13°C° 0 mm 2 mps 766 mmHg 53%
    13:00 +13°C° 0 mm 1 mps 765 mmHg 50%
    14:00 +14°C° 0 mm 1 mps 765 mmHg 48%
    15:00 +14°C° 0 mm 1 mps 765 mmHg 50%
    16:00 +13°C° 0 mm 1 mps 765 mmHg 52%
    17:00 +13°C° 0 mm 1 mps 765 mmHg 54%
    18:00 +12°C° 0 mm 1 mps 765 mmHg 60%
    19:00 +11°C° 0 mm 1 mps 765 mmHg 66%
    20:00 +10°C° 0 mm 1 mps 766 mmHg 72%
    21:00 +9°C° 0 mm 1 mps 766 mmHg 72%
    22:00 +9°C° 0 mm 1 mps 766 mmHg 72%
    23:00 +9°C° 0 mm 1 mps 766 mmHg 72%

    22 February, Friday

    Time Temperature Precipitation Wind Pressure Humidity
    00:00 +8°C° 0 mm 1 mps 766 mmHg 70%
    01:00 +7°C° 0 mm 2 mps 766 mmHg 68%
    02:00 +7°C° 0 mm 2 mps 766 mmHg 66%
    03:00 +7°C° 0 mm 2 mps 765 mmHg 66%
    04:00 +6°C° 0 mm 2 mps 765 mmHg 65%
    05:00 +6°C° 0 mm 2 mps 765 mmHg 65%
    06:00 +6°C° 0 mm 2 mps 765 mmHg 65%
    07:00 +7°C° 0 mm 2 mps 765 mmHg 65%
    08:00 +7°C° 0 mm 2 mps 765 mmHg 66%
    09:00 +8°C° 0 mm 3 mps 765 mmHg 62%
    10:00 +9°C° 0 mm 3 mps 766 mmHg 59%
    11:00 +11°C° 0 mm 3 mps 766 mmHg 55%
    12:00 +11°C° 0.1 mm 3 mps 765 mmHg 55%
    13:00 +11°C° 0.1 mm 3 mps 765 mmHg 54%
    14:00 +12°C° 0.1 mm 3 mps 764 mmHg 54%
    15:00 +11°C° 0.2 mm 3 mps 764 mmHg 58%
    16:00 +12°C° 0.2 mm 2 mps 764 mmHg 62%
    17:00 +10°C° 0.2 mm 2 mps 764 mmHg 66%
    18:00 +10°C° 0.2 mm 2 mps 765 mmHg 70%
    19:00 +9°C° 0.2 mm 3 mps 765 mmHg 74%
    20:00 +9°C° 0.2 mm 3 mps 765 mmHg 78%
    21:00 +7°C° 0.4 mm 4 mps 766 mmHg 78%
    22:00 +7°C° 0.4 mm 6 mps 766 mmHg 79%
    23:00 +5°C° 0.4 mm 7 mps 767 mmHg 79%

    23 February, Saturday

    Time Temperature Precipitation Wind Pressure Humidity
    00:00 +4°C° 0 mm 7 mps 767 mmHg 71%
    01:00 +3°C° 0 mm 7 mps 768 mmHg 64%
    02:00 +1°C° 0 mm 8 mps 768 mmHg 56%
    03:00 0°C° 0 mm 8 mps 769 mmHg 56%
    04:00 -1°C° 0 mm 8 mps 769 mmHg 55%
    05:00 -2°C° 0 mm 8 mps 770 mmHg 55%
    06:00 -2°C° 0 mm 8 mps 770 mmHg 54%
    07:00 -4°C° 0 mm 9 mps 771 mmHg 52%
    08:00 -5°C° 0 mm 9 mps 772 mmHg 51%
    09:00 -5°C° 0 mm 9 mps 772 mmHg 46%
    10:00 -4°C° 0 mm 9 mps 772 mmHg 41%
    11:00 -3°C° 0 mm 9 mps 772 mmHg 36%
    12:00 -3°C° 0 mm 9 mps 772 mmHg 35%
    13:00 -3°C° 0 mm 9 mps 772 mmHg 33%
    14:00 -1°C° 0 mm 9 mps 772 mmHg 32%
    15:00 -3°C° 0 mm 9 mps 772 mmHg 33%
    16:00 -3°C° 0 mm 9 mps 772 mmHg 34%
    17:00 -2°C° 0 mm 8 mps 772 mmHg 36%
    18:00 -4°C° 0 mm 8 mps 772 mmHg 38%
    19:00 -4°C° 0 mm 8 mps 773 mmHg 40%
    20:00 -4°C° 0 mm 7 mps 773 mmHg 42%
    21:00 -4°C° 0 mm 7 mps 773 mmHg 43%
    22:00 -4°C° 0 mm 7 mps 773 mmHg 43%
    23:00 -4°C° 0 mm 7 mps 773 mmHg 44%
    Show more